Weather History for Denton, TX

Change the Weather History Date:

Friday, July 19, 2013

  Actual Average Record
Temperature  
Mean Temperature 82 °F -  
Max Temperature 93 °F 96 °F 105 °F (2000)
Min Temperature 71 °F 71 °F 66 °F (2004)
Cooling Degree Days 17    
Growing Degree Days 32 (Base 50)    
Moisture  
Dew Point 70 °F    
Average Humidity 71    
Maximum Humidity 96    
Minimum Humidity 41    
Precipitation  
Precipitation 0.00 in - - ()
Sea Level Pressure  
Sea Level Pressure 29.98 in    
Wind  
Wind Speed 4 mph (South)    
Max Wind Speed 29 mph    
Max Gust Speed 33 mph    
Visibility 10 miles    
Events Rain    
Averages and records for this station are not official NWS values.
T = Trace of Precipitation, MM = Missing Value Source: NWS Daily Summary

Daily Weather History Graph

Daily Weather History Graph

Search for Another Location

Airport:

Trip Planner

Search our weather history database for the weather conditions in past years. The results will help you decide how hot, cold, wet, or windy it might be!

Date:

Astronomy

Jul. 19, 2013 Rise Set
Actual Time 6:33 AM CDT 8:36 PM CDT
Civil Twilight 6:05 AM CDT 9:04 PM CDT
Nautical Twilight 5:31 AM CDT 9:38 PM CDT
Astronomical Twilight 4:54 AM CDT 10:14 PM CDT
Moon 5:40 PM CDT 3:14 AM CDT
Length of Visible Light 14h 59m
Length of Day
14h 03m
Waxing Gibbous, 87% of the Moon is Illuminated
Jul 19
Waxing Gibbous
Jul 22
Full
Jul 29
Last Quarter
Aug 6
New
Aug 14
First Quarter

Hourly Weather History & Observations

Time (CDT) Temp. Heat Index Dew Point Humidity Pressure Visibility Wind Dir Wind Speed Gust Speed Precip Events Conditions
12:53 AM 75.0 °F - 70.0 °F 84% 30.02 in 10.0 mi Calm Calm - N/A   Clear
1:53 AM 73.0 °F - 70.0 °F 90% 30.01 in 10.0 mi West 3.5 mph - N/A   Clear
2:53 AM 73.0 °F - 70.0 °F 90% 30.00 in 10.0 mi Calm Calm - N/A   Clear
3:53 AM 73.0 °F - 70.0 °F 90% 29.99 in 10.0 mi Calm Calm - N/A   Clear
4:53 AM 71.1 °F - 70.0 °F 96% 30.00 in 10.0 mi Calm Calm - N/A   Clear
5:53 AM 71.1 °F - 70.0 °F 96% 30.01 in 10.0 mi Calm Calm - N/A   Clear
6:53 AM 71.1 °F - 70.0 °F 96% 30.02 in 10.0 mi West 3.5 mph - N/A   Clear
7:53 AM 75.0 °F - 71.1 °F 87% 30.03 in 10.0 mi Calm Calm - N/A   Clear
8:53 AM 80.1 °F 83.8 °F 72.0 °F 76% 30.03 in 10.0 mi SSE 3.5 mph - N/A   Clear
9:53 AM 84.0 °F 89.0 °F 71.1 °F 65% 30.03 in 10.0 mi SSW 6.9 mph - N/A   Clear
10:53 AM 87.1 °F 92.0 °F 70.0 °F 57% 30.02 in 10.0 mi SW 5.8 mph - N/A   Clear
11:53 AM 90.0 °F 94.5 °F 69.1 °F 50% 30.01 in 10.0 mi WSW 6.9 mph - N/A   Scattered Clouds
12:53 PM 91.0 °F 94.3 °F 66.9 °F 45% 29.99 in 10.0 mi South 3.5 mph - N/A   Partly Cloudy
1:53 PM 91.0 °F 94.3 °F 66.9 °F 45% 29.97 in 10.0 mi Calm Calm - N/A   Partly Cloudy
2:53 PM 91.9 °F 95.4 °F 66.9 °F 44% 29.95 in 10.0 mi SSE 6.9 mph - N/A   Clear
3:53 PM 93.0 °F 95.9 °F 66.0 °F 41% 29.93 in 10.0 mi SW 6.9 mph - N/A   Clear
4:36 PM 84.2 °F 88.4 °F 69.8 °F 62% 29.96 in 10.0 mi ESE 28.8 mph 33.4 mph N/A   Overcast
4:53 PM 80.1 °F 82.9 °F 69.1 °F 69% 29.94 in 10.0 mi SE 17.3 mph - 0.00 in Rain Light Rain
5:53 PM 82.0 °F 85.9 °F 70.0 °F 67% 29.94 in 10.0 mi West 4.6 mph - 0.00 in   Overcast
6:53 PM 86.0 °F 91.5 °F 71.1 °F 61% 29.90 in 10.0 mi SE 10.4 mph - N/A   Clear
7:53 PM 84.0 °F 89.0 °F 71.1 °F 65% 29.91 in 10.0 mi ESE 9.2 mph - N/A   Clear
8:53 PM 81.0 °F 85.2 °F 72.0 °F 74% 29.91 in 10.0 mi SE 6.9 mph - N/A   Clear
9:53 PM 80.1 °F 83.8 °F 72.0 °F 76% 29.92 in 10.0 mi SE 6.9 mph - N/A   Clear
10:53 PM 79.0 °F - 70.0 °F 74% 29.96 in 10.0 mi SE 9.2 mph - N/A   Partly Cloudy
11:53 PM 77.0 °F - 70.0 °F 79% 29.96 in 10.0 mi SSE 5.8 mph - N/A   Scattered Clouds